Vorticity
15 12 9 10 8 3 7 6 10 15 16 17 13 15 19 15 17 17 7 15 14 9 2 -1 4 40 27 1 36 -6 16 8 2 13 3 25 12 0 -1 12 42 8 5
8 7 8 9 10 7 13 8 19 16 17 12 13 9 12 11 10 20 11 1 19 -5 5 16 26 -21 25 -12 32 9 6 6 12 2 25 3 19 6 -8 21 9 6 8
6 9 5 10 8 6 11 13 21 24 14 17 13 12 27 24 23 16 14 26 43 49 25 23 45 -13 30 -13 35 14 15 4 14 8 27 15 20 1 -5 5 -5 19 8
11 11 4 7 9 10 11 27 17 7 12 9 24 13 17 24 25 40 48 76 65 23 12 -2 25 1 26 12 43 19 15 15 18 0 11 -16 17 17 3 23 10 8 8
13 14 7 11 9 11 18 22 4 12 3 25 4 17 25 34 33 9 -8 13 5 51 16 23 11 -11 10 35 19 17 9 14 -3 26 -17 25 24 18 20 4 4 5 6
7 9 13 7 14 28 21 15 3 5 26 8 16 35 27 33 29 16 24 29 36 18 30 18 16 19 26 26 24 15 18 20 6 2 19 3 35 20 -8 24 7 12 4
7 13 6 18 18 16 12 10 14 21 9 26 33 26 30 29 10 10 23 19 34 19 5 40 37 34 9 21 12 17 11 6 22 22 -5 24 18 4 24 6 7 4 10
14 9 27 -1 14 18 12 16 5 11 24 27 25 25 20 17 9 11 13 6 21 28 14 22 31 24 8 36 12 11 13 24 5 11 29 34 25 5 10 12 -7 9 7
11 17 12 21 22 26 12 8 21 22 20 24 26 23 18 12 9 9 9 13 15 13 15 18 23 20 30 12 17 19 25 2 20 12 28 41 9 10 4 1 9 6 4
17 12 26 -4 34 16 16 25 13 26 18 27 26 24 24 22 12 14 15 18 18 12 12 17 21 22 18 27 20 16 5 15 21 22 0 0 7 3 9 9 7 6 8
3 18 6 -4 40 21 28 7 18 17 22 22 16 19 20 23 26 25 15 13 12 11 10 10 14 17 24 22 11 14 29 34 2 8 0 15 5 4 10 8 8 6 5
9 7 8 12 31 24 12 12 17 16 21 20 20 16 12 10 11 8 11 13 14 20 23 20 16 12 12 21 14 7 -1 3 23 25 9 -2 7 9 8 9 7 6 5
6 10 2 51 23 15 10 22 13 18 17 16 20 21 21 17 17 15 15 15 19 17 12 6 6 16 19 2 9 7 17 23 17 -3 7 9 8 8 8 8 8 8 7
12 15 2 49 23 11 16 21 13 13 13 11 9 11 11 10 10 17 16 14 10 8 11 18 18 20 -5 -3 19 26 22 6 -0 4 7 6 6 7 8 7 7 7 6
8 23 -1 40 26 19 22 15 15 11 6 7 8 6 10 8 9 8 4 2 4 6 10 4 9 9 18 24 23 10 4 6 7 7 7 7 8 7 7 7 7 6 7
15 12 2 32 29 26 26 15 16 10 8 6 5 6 8 12 10 10 12 17 15 10 16 26 28 26 10 7 5 4 8 9 8 8 8 8 7 7 7 7 8 8 8
16 15 20 6 28 30 21 10 12 5 2 4 4 5 6 8 7 5 9 17 10 6 4 4 4 7 15 10 5 7 5 3 1 5 7 7 8 8 9 8 10 7 9
15 17 15 18 4 5 19 14 4 9 10 8 9 8 9 10 9 9 11 16 16 10 4 4 6 6 6 9 12 13 13 15 18 5 2 2 7 7 8 10 3 2 9
10 10 16 17 18 10 10 12 11 10 9 6 10 9 8 9 13 13 12 10 9 9 10 9 9 11 10 10 10 11 12 14 14 15 10 8 9 7 2 6 0 10 7
8 9 12 13 18 18 15 11 11 11 9 8 8 7 8 9 12 11 12 12 11 10 10 10 10 8 9 10 11 11 9 9 12 15 20 20 20 18 14 9 7 20 13
6 7 7 7 16 15 18 17 14 13 13 13 12 12 12 10 9 9 10 10 10 12 12 13 14 15 16 14 14 14 14 14 15 13 10 8 10 15 22 23 14 10 12
8 7 8 8 7 9 10 12 17 19 19 17 16 16 16 14 14 13 13 13 13 12 13 14 16 17 17 16 17 17 16 15 13 12 12 13 13 12 11 11 12 13 13
12 9 8 6 8 11 9 11 13 11 11 12 14 13 11 11 13 15 17 18 18 17 16 15 15 15 15 15 14 13 13 13 13 13 13 13 12 11 11 11 12 15 17
14 12 13 8 6 7 8 9 10 10 9 9 9 10 11 11 11 11 11 10 9 8 7 8 9 9 9 9 9 9 9 9 10 11 11 11 12 13 13 13 13 14 14
16 16 14 12 8 9 10 10 10 8 7 9 10 11 10 10 9 8 8 8 8 8 8 8 9 9 9 9 10 10 11 11 11 11 11 12 12 12 12 12 12 13 13
11 14 14 14 14 15 15 19 16 12 10 10 11 10 9 8 8 9 9 9 9 9 9 9 9 10 10 10 10 11 12 12 12 12 12 13 13 13 13 12 12 11 12
Height
3013 3007 3001 2995 2989 2983 2976 2970 2962 2954 2948 2944 2940 2934 2934 2935 2934 2930 2930 2931 2932 2932 2932 2941 2944 2952 2955 2966 2965 2975 2982 2991 2999 3008 3015 3025 3025 3035 3041 3045 3046 3054 3058
3002 2995 2989 2983 2975 2968 2960 2953 2947 2938 2933 2927 2922 2915 2912 2911 2911 2909 2908 2908 2910 2911 2911 2922 2926 2936 2941 2949 2951 2957 2967 2978 2987 2993 3005 3007 3016 3026 3030 3032 3038 3045 3050
2991 2985 2978 2970 2960 2953 2945 2938 2932 2924 2918 2912 2905 2898 2894 2891 2889 2886 2883 2879 2880 2884 2892 2902 2911 2922 2927 2928 2938 2951 2959 2965 2973 2984 2995 2998 3006 3013 3017 3023 3031 3038 3044
2980 2972 2965 2956 2948 2940 2933 2924 2912 2909 2903 2897 2889 2882 2876 2869 2865 2861 2860 2852 2857 2866 2873 2886 2897 2908 2911 2917 2926 2938 2952 2954 2966 2976 2984 2989 2998 3004 3010 3016 3024 3030 3037
2968 2961 2953 2944 2936 2927 2920 2912 2903 2896 2890 2881 2874 2866 2859 2851 2849 2846 2846 2848 2852 2858 2869 2876 2889 2895 2900 2907 2918 2930 2938 2944 2955 2963 2971 2981 2985 2991 3000 3009 3016 3025 3030
2957 2949 2940 2932 2922 2914 2908 2901 2893 2885 2877 2870 2861 2851 2846 2843 2840 2840 2843 2845 2849 2855 2862 2872 2881 2887 2894 2906 2916 2923 2932 2938 2948 2960 2967 2973 2979 2986 2996 3004 3011 3018 3023
2946 2938 2930 2922 2913 2905 2897 2892 2884 2876 2868 2859 2850 2844 2840 2838 2836 2836 2838 2839 2845 2853 2860 2865 2873 2883 2894 2902 2912 2921 2929 2937 2945 2954 2962 2968 2975 2984 2993 3001 3006 3013 3019
2937 2929 2921 2913 2904 2896 2889 2883 2875 2867 2859 2852 2845 2840 2837 2835 2834 2833 2836 2838 2843 2850 2852 2862 2873 2883 2892 2901 2910 2918 2925 2932 2938 2948 2958 2964 2973 2982 2991 2999 3003 3007 3011
2929 2921 2912 2903 2894 2887 2881 2875 2868 2862 2854 2847 2841 2837 2835 2834 2832 2832 2835 2838 2843 2848 2855 2863 2871 2882 2890 2898 2907 2914 2919 2927 2935 2946 2953 2961 2969 2976 2982 2988 2992 2999 3004
2921 2913 2905 2895 2885 2878 2873 2868 2864 2858 2851 2846 2840 2836 2834 2833 2833 2833 2837 2840 2844 2849 2856 2863 2872 2882 2890 2898 2903 2910 2917 2925 2933 2941 2948 2955 2963 2971 2978 2983 2988 2994 3000
2916 2908 2899 2889 2876 2871 2868 2864 2861 2856 2852 2847 2843 2838 2836 2835 2836 2837 2839 2843 2847 2853 2858 2865 2873 2880 2888 2894 2902 2910 2917 2925 2932 2939 2944 2951 2959 2967 2973 2978 2983 2989 2993
2911 2904 2894 2883 2873 2868 2865 2863 2861 2857 2854 2850 2846 2843 2841 2839 2840 2842 2844 2848 2852 2858 2863 2869 2875 2882 2889 2896 2904 2910 2917 2924 2931 2936 2942 2950 2957 2964 2969 2974 2979 2983 2986
2907 2899 2889 2877 2870 2867 2864 2863 2861 2859 2856 2853 2851 2848 2847 2846 2846 2847 2849 2852 2857 2863 2868 2874 2880 2886 2892 2898 2904 2910 2915 2921 2928 2935 2942 2948 2954 2959 2964 2970 2974 2978 2981
2902 2894 2886 2874 2868 2865 2863 2863 2862 2861 2858 2857 2856 2855 2854 2854 2854 2856 2857 2859 2863 2867 2872 2877 2883 2889 2894 2900 2905 2909 2915 2920 2928 2935 2940 2945 2950 2955 2960 2965 2968 2972 2975
2899 2892 2885 2874 2868 2864 2863 2864 2862 2862 2860 2859 2859 2859 2860 2860 2861 2863 2865 2867 2870 2874 2877 2881 2887 2892 2896 2901 2905 2910 2916 2922 2928 2933 2937 2942 2946 2951 2954 2959 2962 2966 2968
2897 2891 2886 2877 2869 2865 2865 2866 2866 2865 2864 2862 2862 2863 2864 2865 2867 2867 2869 2871 2875 2879 2882 2885 2888 2892 2897 2901 2906 2912 2917 2922 2926 2930 2935 2939 2941 2945 2949 2952 2956 2959 2961
2895 2891 2887 2881 2873 2869 2869 2868 2869 2869 2868 2868 2867 2867 2869 2870 2871 2872 2873 2876 2879 2882 2884 2887 2891 2895 2898 2902 2905 2910 2914 2918 2923 2927 2931 2934 2937 2939 2941 2946 2949 2951 2952
2896 2892 2888 2884 2879 2875 2873 2873 2872 2873 2873 2873 2873 2873 2874 2875 2876 2878 2879 2881 2883 2885 2887 2890 2893 2896 2899 2902 2905 2908 2910 2914 2918 2921 2924 2927 2930 2932 2936 2939 2942 2943 2946
2897 2893 2890 2886 2883 2880 2877 2876 2875 2875 2875 2876 2876 2877 2877 2879 2880 2880 2882 2883 2884 2886 2888 2890 2892 2895 2898 2900 2902 2904 2907 2909 2912 2915 2918 2920 2923 2926 2929 2931 2934 2935 2937
2897 2893 2890 2887 2886 2884 2881 2878 2877 2877 2876 2877 2878 2878 2879 2880 2881 2882 2883 2884 2885 2887 2888 2889 2892 2893 2895 2896 2898 2900 2902 2904 2907 2910 2913 2914 2916 2919 2922 2924 2926 2927 2929
2896 2893 2890 2887 2885 2884 2883 2881 2879 2878 2878 2878 2878 2879 2880 2880 2880 2881 2882 2883 2884 2886 2887 2889 2890 2891 2893 2894 2895 2897 2898 2899 2901 2903 2905 2908 2910 2913 2915 2915 2917 2918 2919
2895 2893 2891 2888 2887 2886 2884 2883 2882 2880 2880 2879 2879 2880 2881 2881 2882 2882 2883 2884 2885 2885 2886 2887 2888 2888 2889 2890 2892 2893 2895 2895 2897 2898 2901 2903 2904 2906 2907 2908 2909 2910 2912
2893 2892 2890 2889 2887 2887 2886 2885 2884 2882 2881 2882 2882 2881 2881 2883 2884 2884 2884 2884 2885 2885 2886 2887 2887 2888 2889 2890 2890 2891 2892 2893 2894 2895 2897 2898 2900 2901 2901 2903 2904 2904 2905
2890 2889 2888 2888 2887 2887 2886 2886 2886 2884 2883 2883 2883 2883 2883 2883 2883 2884 2885 2885 2885 2885 2886 2886 2887 2888 2888 2889 2890 2891 2891 2891 2892 2893 2894 2894 2896 2896 2897 2898 2898 2898 2898
2888 2887 2886 2886 2886 2886 2886 2886 2885 2886 2885 2885 2884 2884 2884 2884 2884 2884 2885 2885 2885 2885 2886 2886 2887 2887 2888 2888 2888 2889 2889 2889 2890 2891 2891 2891 2892 2892 2892 2892 2892 2892 2891
2885 2885 2884 2884 2884 2885 2885 2885 2885 2885 2885 2885 2886 2886 2886 2886 2886 2886 2885 2885 2886 2885 2885 2885 2886 2886 2886 2886 2886 2886 2886 2886 2886 2886 2886 2887 2887 2887 2887 2887 2886 2886 2886